Lid_Strength_Index
4 4 3 2 2 2 3 3 2 2 2 2 2 3 3 4 4 4 4 4 4 4
6 6 4 4 4 3 4 5 5 4 4 5 5 4 4 4 5 4 4 4 4 4
7 7 7 5 6 6 6 6 7 7 7 7 7 7 6 7 7 7 7 7 8 8
9 9 9 7 8 8 8 8 9 9 9 10 10 9 10 10 10 10 10 10 10 10
10 10 10 10 10 10 10 11 11 11 11 11 11 12 11 12 11 12 12 12 12 12
11 11 11 12 12 12 12 12 12 12 13 13 13 13 13 13 13 13 13 13 13 13
13 13 13 13 13 13 13 13 14 14 14 14 14 14 14 14 14 14 13 13 13 13
14 14 14 14 14 14 14 14 15 15 15 15 14 14 14 14 14 14 14 14 14 14
15 15 15 15 14 15 15 15 15 15 15 15 15 12 11 13 15 15 15 15 14 14
15 15 15 15 15 16 16 16 16 16 16 16 16 12 12 12 14 15 15 15 14 14
15 16 16 16 16 16 16 16 16 17 16 17 15 12 12 13 14 14 13 13 13 13
17 17 17 18 17 17 18 17 17 16 17 17 18 12 12 13 14 13 13 13 13 13
18 19 19 18 18 18 18 17 16 16 18 19 20 14 12 12 15 16 13 13 12 12
19 19 19 20 19 19 18 18 19 19 19 20 18 17 12 12 14 13 13 13 14 13